User: anonymous   Login
Location: ActonStarParty
(42.4766°N, 71.4538°W)
Time: 23:07:10
(UTC-04:00)
Language:

ITAMSAT 1 - Orbit

View from above orbital plane
View from above orbital plane
View from above satellite
View from above satellite

Ground track
Ground track

The orbit data is extracted from the following two-line orbital elements,

1 22826U 93061D   16180.88202981  .00000013  00000-0  22431-4 0  9993
2 22826  98.7544 137.3239 0007790 276.2951  83.7344 14.30284534187078
Epoch (UTC): 28 June 2016 21:10:07
Eccentricity: 0.0007790
inclination: 98.7544°
perigee height: 785 km
apogee height: 796 km
right ascension of ascending node: 137.3239°
argument of perigee: 276.2951°
revolutions per day: 14.30284534
mean anomaly at epoch: 83.7344°
orbit number at epoch: 18707

The dashed part of the orbit path shows where the satellite is in the earth's shadow,  

DLR